TimeCST,TemperatureF,Dew PointF,Humidity,Sea Level PressureIn,VisibilityMPH,Wind Direction,Wind SpeedMPH,Gust SpeedMPH,PrecipitationIn,Events,Conditions,WindDirDegrees,DateUTC
12:15 AM,13.8,11.5,90,30.16,10.0,NNW,5.8,-,N/A,,Clear,330,2011-11-20 06:15:00
12:35 AM,13.6,11.5,91,30.17,10.0,NNW,5.8,-,N/A,,Clear,330,2011-11-20 06:35:00
12:55 AM,14.0,11.5,90,30.18,10.0,NNW,8.1,-,N/A,,Clear,330,2011-11-20 06:55:00
1:15 AM,13.8,11.3,90,30.18,10.0,NNW,9.2,-,N/A,,Clear,340,2011-11-20 07:15:00
1:35 AM,13.1,10.8,90,30.18,10.0,North,5.8,-,N/A,,Clear,350,2011-11-20 07:35:00
1:55 AM,12.7,10.4,90,30.19,10.0,North,5.8,-,N/A,,Clear,350,2011-11-20 07:55:00
2:15 AM,12.6,10.0,90,30.20,10.0,North,4.6,-,N/A,,Clear,360,2011-11-20 08:15:00
2:35 AM,12.4,9.7,89,30.21,10.0,North,3.5,-,N/A,,Clear,360,2011-11-20 08:35:00
2:55 AM,11.7,9.0,89,30.21,10.0,North,5.8,-,N/A,,Clear,350,2011-11-20 08:55:00
3:15 AM,10.9,8.2,89,30.23,10.0,North,5.8,-,N/A,,Clear,350,2011-11-20 09:15:00
3:35 AM,10.0,7.5,90,30.22,10.0,North,4.6,-,N/A,,Clear,350,2011-11-20 09:35:00
3:55 AM,9.9,7.3,90,30.24,10.0,SW,3.5,-,N/A,,Clear,230,2011-11-20 09:55:00
4:15 AM,8.6,6.3,90,30.25,10.0,West,3.5,-,N/A,,Clear,260,2011-11-20 10:15:00
4:35 AM,8.2,5.9,90,30.24,10.0,West,3.5,-,N/A,,Clear,270,2011-11-20 10:35:00
4:55 AM,7.9,5.5,90,30.24,10.0,WNW,4.6,-,N/A,,Clear,300,2011-11-20 10:55:00
6:35 AM,8.8,6.3,89,30.26,10.0,NNW,3.5,-,N/A,,Clear,330,2011-11-20 12:35:00
6:55 AM,8.1,5.7,90,30.27,10.0,North,4.6,-,N/A,,Clear,350,2011-11-20 12:55:00
7:15 AM,8.6,6.1,89,30.28,10.0,NNW,3.5,-,N/A,,Clear,340,2011-11-20 13:15:00
7:55 AM,9.0,6.4,89,30.29,10.0,North,5.8,-,N/A,,Mostly Cloudy,360,2011-11-20 13:55:00
8:15 AM,9.7,7.2,90,30.28,10.0,North,6.9,-,N/A,,Scattered Clouds,10,2011-11-20 14:15:00
8:35 AM,10.8,8.1,89,30.29,10.0,North,8.1,-,N/A,,Mostly Cloudy,360,2011-11-20 14:35:00
8:55 AM,11.1,8.2,88,30.30,10.0,North,4.6,-,N/A,,Mostly Cloudy,360,2011-11-20 14:55:00
9:15 AM,11.7,9.0,89,30.31,10.0,North,4.6,-,N/A,,Mostly Cloudy,360,2011-11-20 15:15:00
9:35 AM,12.6,9.9,89,30.31,10.0,North,3.5,-,N/A,,Scattered Clouds,10,2011-11-20 15:35:00
9:55 AM,14.0,11.5,90,30.32,10.0,North,3.5,-,N/A,,Clear,350,2011-11-20 15:55:00
10:15 AM,15.6,13.1,90,30.32,10.0,Calm,Calm,-,N/A,,Scattered Clouds,0,2011-11-20 16:15:00
10:35 AM,17.1,14.4,89,30.32,10.0,Calm,Calm,-,N/A,,Scattered Clouds,0,2011-11-20 16:35:00
10:55 AM,18.1,15.3,88,30.33,10.0,Calm,Calm,-,N/A,,Clear,0,2011-11-20 16:55:00
11:15 AM,19.2,16.7,90,30.33,10.0,Calm,Calm,-,N/A,,Clear,0,2011-11-20 17:15:00
12:15 PM,22.3,19.4,89,30.31,10.0,Calm,Calm,-,N/A,,Mostly Cloudy,0,2011-11-20 18:15:00
12:55 PM,23.7,20.3,87,30.30,10.0,North,4.6,-,N/A,,Mostly Cloudy,10,2011-11-20 18:55:00
1:15 PM,24.1,20.7,87,30.29,10.0,NNE,4.6,-,N/A,,Mostly Cloudy,20,2011-11-20 19:15:00
1:35 PM,24.3,20.7,86,30.29,10.0,Calm,Calm,-,N/A,,Scattered Clouds,0,2011-11-20 19:35:00
1:55 PM,24.6,20.7,85,30.28,10.0,NE,4.6,-,N/A,,Scattered Clouds,50,2011-11-20 19:55:00
2:15 PM,25.2,21.0,84,30.28,10.0,ENE,3.5,-,N/A,,Clear,60,2011-11-20 20:15:00
2:55 PM,25.7,21.2,83,30.27,10.0,NE,4.6,-,N/A,,Clear,50,2011-11-20 20:55:00
3:15 PM,25.9,21.2,82,30.28,10.0,NE,3.5,-,N/A,,Clear,50,2011-11-20 21:15:00
3:35 PM,26.4,21.7,82,30.28,10.0,ENE,4.6,-,N/A,,Clear,60,2011-11-20 21:35:00
3:55 PM,26.4,21.9,83,30.27,10.0,ENE,4.6,-,N/A,,Clear,70,2011-11-20 21:55:00
4:15 PM,26.2,21.9,84,30.27,10.0,ENE,4.6,-,N/A,,Clear,70,2011-11-20 22:15:00
4:35 PM,25.9,21.6,84,30.27,10.0,East,4.6,-,N/A,,Clear,80,2011-11-20 22:35:00
4:55 PM,24.6,21.2,87,30.28,10.0,East,5.8,-,N/A,,Clear,80,2011-11-20 22:55:00
5:15 PM,22.8,20.1,89,30.27,10.0,ENE,5.8,-,N/A,,Clear,70,2011-11-20 23:15:00
5:35 PM,21.9,19.8,91,30.27,10.0,East,5.8,-,N/A,,Clear,80,2011-11-20 23:35:00
5:55 PM,20.5,18.3,91,30.27,10.0,East,5.8,-,N/A,,Clear,80,2011-11-20 23:55:00
6:15 PM,19.8,18.0,93,30.27,10.0,East,5.8,-,N/A,,Clear,80,2011-11-21 00:15:00
6:35 PM,18.5,16.7,93,30.28,10.0,East,5.8,-,N/A,,Clear,100,2011-11-21 00:35:00
6:55 PM,18.0,16.2,93,30.27,10.0,East,6.9,-,N/A,,Clear,100,2011-11-21 00:55:00
7:15 PM,17.6,16.0,93,30.27,10.0,East,6.9,-,N/A,,Clear,100,2011-11-21 01:15:00
7:35 PM,17.4,15.8,93,30.27,10.0,East,4.6,-,N/A,,Clear,100,2011-11-21 01:35:00
8:15 PM,16.7,14.9,93,30.27,10.0,ESE,4.6,-,N/A,,Clear,110,2011-11-21 02:15:00
8:35 PM,15.6,14.2,94,30.27,10.0,ESE,5.8,-,N/A,,Clear,110,2011-11-21 02:35:00
8:55 PM,15.1,13.8,95,30.25,10.0,East,4.6,-,N/A,,Clear,90,2011-11-21 02:55:00
9:15 PM,15.3,14.0,95,30.25,10.0,East,3.5,-,N/A,,Clear,100,2011-11-21 03:15:00
9:35 PM,14.7,13.1,93,30.25,10.0,ESE,4.6,-,N/A,,Clear,110,2011-11-21 03:35:00
9:55 PM,13.8,12.7,95,30.25,10.0,ESE,5.8,-,N/A,,Clear,110,2011-11-21 03:55:00
10:15 PM,14.2,13.3,96,30.25,10.0,ESE,5.8,-,N/A,,Clear,110,2011-11-21 04:15:00
10:35 PM,16.2,15.1,95,30.25,10.0,ESE,6.9,-,N/A,,Mostly Cloudy,120,2011-11-21 04:35:00
10:55 PM,16.9,15.4,94,30.26,10.0,SE,5.8,-,N/A,,Overcast,130,2011-11-21 04:55:00
11:15 PM,18.1,16.5,93,30.27,10.0,SSE,5.8,-,N/A,,Mostly Cloudy,150,2011-11-21 05:15:00
11:35 PM,17.8,16.0,93,30.26,10.0,SSE,4.6,-,N/A,,Mostly Cloudy,150,2011-11-21 05:35:00
11:55 PM,17.4,15.6,93,30.27,10.0,Calm,Calm,-,N/A,,Scattered Clouds,0,2011-11-21 05:55:00